Startseite
Über Mich
AHP4
Galerie
Sehschlangen
Tourenbuch
Bookmarks
Elektronik
Bewertung
Geschichten
[Tagesmessung] [Jahreswerte] [Information]

Messwerte vom 20.11.2021

Die letzten Messwerte von 23:58:45 Uhr:
KategorieMesswert
Temperatur [°C]9
Luftdruck [mBar]997
Sonneneinstrahlung0
Wind [km/h]7 aus Süd
Niederschlag [l/m²]0
rel.Luftfeucht.93.4%
CO2 [ppm]759

Diagramme
Messwerte vom 20.11.2021
Tagesaggregation
KategorieMinimumMaximumSchnittSumme
Temperatur [°C]8119.9396
Luftdruck [mBar]99710101005.0521
Sonneneinstrahlung20356.6521
Wind [km/h]23
rF [%]82.896.692.65
Niederschlag [l/m²]0
CO2 [ppm]393759498.0
Einordnung alsVegetationstag

Messungen an benachbarten Tagen: Zur Jahresaggregation 2021
Tabelle aller Messwerte
UhrzeitTemperatur [°C]Luftdruck [mBar]SonneWind [km/h]RichtungRegen [l/m²]rF [%]CO2 [ppm]
00:01:47 11 1010 0 5 W 0 95 506
00:04:48 11 1009 0 11 W 0 95.1 498
00:07:47 11 1010 0 15 W 0 95.1 497
00:10:47 11 1010 0 5 W 0 95.1 492
00:13:48 11 1010 0 4 SW 0 95.2 501
00:16:47 11 1009 0 6 W 0 95.2 503
00:19:46 11 1010 0 12 W 0 95.2 501
00:22:48 11 1010 0 7 NW 0 95.3 504
00:25:47 11 1010 0 5 W 0 95.5 509
00:28:46 11 1010 0 6 W 0 95.5 509
00:31:48 11 1010 0 9 W 0 95.6 515
00:34:46 11 1009 0 4 W 0 95.7 521
00:37:48 11 1010 0 4 SW 0 95.8 524
00:40:46 11 1010 0 7 W 0 95.9 524
00:43:47 11 1010 0 7 SW 0 96 518
00:46:48 11 1010 0 6 W 0 96 518
00:49:48 11 1010 0 4 NW 0 96.2 515
00:52:44 11 1009 0 7 W 0 96.3 515
00:55:47 11 1009 0 5 NW 0 96.4 518
00:58:49 11 1010 0 14 W 0 96.5 512
01:01:46 10 1010 0 7 SW 0 96.6 509
01:04:48 10 1009 0 6 SW 0 96.6 509
01:07:47 10 1010 0 6 SW 0 96.6 506
01:10:45 10 1009 0 6 W 0 96.6 512
01:13:48 10 1010 0 5 SW 0 96.6 512
01:16:45 10 1010 0 5 S 0 96.6 509
01:19:46 10 1010 0 8 W 0 96.6 510
01:22:48 10 1010 0 4 S 0 96.6 506
01:25:48 10 1009 0 4 S 0 96.6 506
01:28:47 10 1009 0 9 N 0 96.6 506
01:31:47 10 1009 0 8 SW 0 96.6 512
01:34:48 10 1010 0 4 SW 0 96.6 512
01:37:47 10 1010 0 4 SW 0 96.6 507
01:40:47 10 1009 0 6 N 0 96.6 504
01:43:49 10 1009 0 7 SW 0 96.6 513
01:46:46 10 1010 0 3 W 0 96.6 512
01:49:45 10 1010 0 1 S 0 96.6 506
01:52:47 10 1010 0 4 SW 0 96.6 504
01:55:46 10 1009 0 7 S 0 96.6 507
01:58:48 10 1010 0 3 SW 0 96.6 504
02:01:49 10 1010 0 5 NW 0 96.6 499
02:04:48 10 1010 0 7 NW 0 96.6 497
02:07:46 10 1010 0 12 W 0 96.5 500
02:10:48 10 1009 0 10 W 0 96.4 500
02:13:47 10 1010 0 9 NW 0 96.4 500
02:16:46 10 1010 0 2 W 0 96.4 497
02:19:47 10 1010 0 6 NW 0 96.4 504
02:22:48 10 1010 0 10 SW 0 96.4 503
02:25:47 10 1010 0 7 SW 0 96.5 500
02:28:47 10 1010 0 9 SW 0 96.5 495
02:31:50 10 1009 0 5 SW 0 96.5 491
02:34:47 10 1010 0 8 SW 0 96.5 495
02:37:47 10 1010 0 4 S 0 96.5 503
02:40:45 10 1010 0 3 S 0 96.5 513
02:43:48 10 1010 0 5 S 0 96.5 512
02:46:47 10 1010 0 6 SW 0 96.6 518
02:49:47 10 1010 0 5 SW 0 96.6 512
02:52:46 10 1010 0 4 S 0 96.6 506
02:55:47 10 1009 0 7 SW 0 96.6 506
02:58:47 10 1010 0 2 SW 0 96.6 509
03:01:49 10 1010 0 4 NW 0 96.6 510
03:04:50 10 1009 0 8 SO 0 96.6 506
03:07:49 10 1009 0 15 NW 0 96.6 504
03:10:46 10 1009 0 1 S 0 96.6 501
03:13:46 10 1009 0 3 W 0 96.6 513
03:16:49 10 1010 0 2 O 0 96.6 513
03:19:47 10 1010 0 2 0 96.6 521
03:22:49 10 1009 0 0 NO 0 96.6 522
03:25:49 10 1009 0 3 SW 0 96.6 518
03:28:49 10 1010 0 6 SW 0 96.6 515
03:31:49 10 1009 0 4 SW 0 96.6 515
03:34:50 10 1010 0 2 W 0 96.6 513
03:37:47 10 1009 0 2 NO 0 96.6 515
03:40:47 10 1009 0 1 O 0 96.6 518
03:43:47 10 1009 0 3 NW 0 96.6 512
03:46:47 10 1010 0 1 S 0 96.6 524
03:49:46 10 1009 0 4 SW 0 96.6 518
03:52:47 10 1009 0 11 S 0 96.6 518
03:55:47 10 1009 0 1 SW 0 96.6 524
03:58:47 10 1010 0 4 N 0 96.6 528
04:01:50 10 1009 0 10 W 0 96.6 530
04:04:47 10 1009 0 6 SW 0 96.6 531
04:07:49 10 1009 0 4 NW 0 96.6 533
04:10:48 10 1009 0 3 SO 0 96.6 539
04:13:48 10 1009 0 3 SW 0 96.6 533
04:16:49 10 1009 0 1 SO 0 96.6 536
04:19:47 10 1009 0 4 SO 0 96.6 536
04:22:47 10 1009 0 4 SW 0 96.6 539
04:25:46 10 1009 0 2 S 0 96.6 536
04:28:48 10 1009 0 1 N 0 96.6 541
04:31:45 10 1010 0 5 S 0 96.6 538
04:34:47 10 1009 0 9 SO 0 96.6 548
04:37:44 10 1009 0 1 W 0 96.6 547
04:40:47 10 1009 0 2 SW 0 96.6 539
04:43:47 10 1009 0 0 N 0 96.6 521
04:46:47 10 1009 0 0 NW 0 96.6 530
04:49:47 10 1009 0 1 NO 0 96.6 533
04:52:45 10 1009 0 2 SO 0 96.6 535
04:55:47 10 1009 0 4 S 0 96.6 529
04:58:46 10 1009 0 2 S 0 96.6 527
05:01:50 10 1009 0 0 W 0 96.6 534
05:04:46 10 1009 0 4 0 96.6 536
05:07:45 10 1009 0 4 W 0 96.6 530
05:10:46 10 1009 0 3 O 0 96.6 531
05:13:44 10 1009 0 0 O 0 96.6 536
05:16:47 10 1009 0 4 W 0 96.6 539
05:19:49 10 1009 0 2 SW 0 96.6 536
05:22:47 10 1009 0 2 W 0 96.6 538
05:25:46 10 1009 0 3 SW 0 96.6 542
05:28:47 10 1009 0 0 S 0 96.6 541
05:31:48 10 1009 0 4 SW 0 96.6 542
05:34:48 10 1009 0 3 SW 0 96.6 533
05:37:48 10 1009 0 2 SO 0 96.6 533
05:40:47 10 1009 0 2 O 0 96.6 536
05:43:47 10 1009 0 5 W 0 96.6 542
05:46:47 10 1009 0 0 S 0 96.6 550
05:49:48 10 1009 0 1 SO 0 96.6 553
05:52:47 10 1009 0 0 NO 0 96.6 553
05:55:49 10 1009 0 0 SW 0 96.6 559
05:58:47 10 1009 0 5 S 0 96.6 557
06:01:49 10 1009 0 1 NW 0 96.6 565
06:04:50 10 1008 0 3 NW 0 96.6 562
06:07:48 10 1009 0 3 W 0 96.6 563
06:10:46 10 1009 0 1 O 0 96.6 551
06:13:48 10 1009 0 0 NW 0 96.6 545
06:16:48 10 1009 0 0 SO 0 96.6 550
06:19:46 10 1009 0 1 S 0 96.6 557
06:22:47 10 1009 0 0 N 0 96.6 559
06:25:48 10 1009 0 0 NO 0 96.6 556
06:28:48 10 1009 0 0 NW 0 96.6 559
06:31:48 10 1009 0 1 SW 0 96.6 556
06:34:49 10 1009 0 7 SW 0 96.6 565
06:37:48 10 1008 0 4 SO 0 96.6 571
06:40:49 10 1008 0 0 SO 0 96.6 582
06:43:49 10 1009 0 0 SO 0 96.6 571
06:46:47 10 1009 0 4 SW 0 96.6 565
06:49:47 10 1008 0 0 NW 0 96.6 559
06:52:47 10 1010 0 3 SW 0 96.6 552
06:55:47 10 1009 0 1 S 0 96.6 559
06:58:47 10 1009 0 2 S 0 96.6 558
07:01:48 10 1008 0 2 NW 0 96.6 553
07:04:47 10 1008 0 1 SO 0 96.6 557
07:07:45 10 1008 0 4 W 0 96.6 563
07:10:46 10 1008 0 1 SO 0 96.6 577
07:13:46 10 1008 0 1 S 0 96.6 585
07:16:46 10 1009 0 1 S 0 96.6 579
07:19:45 10 1008 0 5 S 0 96.6 574
07:22:47 10 1009 3 0 N 0 96.6 574
07:25:49 10 1009 5 1 SO 0 96.6 570
07:28:50 10 1008 7 2 SW 0 96.6 569
07:31:46 10 1008 10 3 O 0 96.6 567
07:34:48 10 1008 16 1 S 0 96.6 567
07:37:47 10 1008 24 2 SO 0 96.6 582
07:40:48 10 1008 29 1 W 0 96.6 599
07:43:46 10 1008 33 3 N 0 96.6 606
07:46:47 10 1008 37 1 O 0 96.6 604
07:49:48 10 1009 41 7 SO 0 96.6 597
07:52:49 10 1009 47 5 SO 0 96.6 603
07:55:49 10 1009 55 5 W 0 96.6 612
07:58:47 10 1008 64 4 W 0 96.6 629
08:01:51 10 1008 70 12 S 0 96.6 626
08:04:47 10 1008 73 6 SW 0 96.6 618
08:07:47 10 1009 88 3 S 0 96.6 609
08:10:48 10 1008 93 2 S 0 96.6 604
08:13:48 10 1009 95 0 SW 0 96.6 614
08:16:49 10 1009 105 1 SW 0 96.6 615
08:19:49 10 1009 97 0 N 0 96.6 625
08:22:48 10 1008 106 2 W 0 96.6 629
08:25:49 10 1008 116 2 SO 0 96.6 635
08:28:50 10 1008 121 6 SO 0 96.6 641
08:31:49 10 1009 133 1 NO 0 96.6 644
08:34:47 10 1007 129 4 O 0 96.6 641
08:37:49 10 1008 133 3 O 0 96.4 638
08:40:48 10 1008 128 4 SO 0 96.3 643
08:43:48 10 1008 137 1 NW 0 96.3 407
08:46:51 10 1008 148 4 NW 0 96.1 404
08:49:49 10 1008 155 3 SO 0 96 407
08:52:47 10 1009 157 3 S 0 95.9 404
08:55:50 10 1008 154 3 SO 0 95.9 407
08:58:46 10 1008 149 7 0 95.8 407
09:01:50 10 1008 144 2 SO 0 95.6 408
09:04:47 10 1008 147 2 N 0 95.6 405
09:07:49 10 1008 150 1 W 0 95.6 409
09:10:48 10 1007 148 4 SW 0 95.6 407
09:13:50 10 1008 156 4 SW 0 95.7 404
09:16:47 10 1008 161 6 W 0 95.7 407
09:19:50 10 1007 155 5 SO 0 95.7 407
09:22:46 10 1008 155 0 O 0 95.6 405
09:25:49 10 1007 157 8 SO 0 95.6 407
09:28:50 10 1008 167 1 NO 0 95.6 407
09:31:50 11 1008 169 1 SW 0 95.8 401
09:34:46 11 1007 169 2 S 0 95.8 406
09:37:49 11 1007 170 4 SO 0 95.8 406
09:40:47 11 1007 167 3 SW 0 95.9 407
09:43:48 11 1008 167 2 SO 0 95.8 404
09:46:54 11 1007 169 2 NW 0 95.9 404
09:49:47 11 1007 174 0 W 0 95.9 404
09:52:49 11 1008 174 0 SO 0 95.9 404
09:55:48 11 1007 174 6 S 0 95.8 406
09:58:47 11 1007 165 0 S 0 95.8 408
10:01:50 11 1007 162 0 SO 0 95.6 404
10:04:48 11 1007 172 5 SO 0 95.2 405
10:07:48 11 1007 170 1 SO 0 95.2 405
10:10:47 11 1007 171 3 0 95.3 404
10:13:47 11 1007 170 1 SO 0 95.2 406
10:16:50 11 1006 177 3 NW 0 95.3 404
10:19:47 11 1007 179 1 SO 0 95.5 403
10:22:47 11 1007 182 1 S 0 95.5 406
10:25:49 11 1006 181 4 NW 0 95.3 393
10:28:49 11 1008 183 2 SO 0 95.3 401
10:31:50 11 1008 178 7 SO 0 95.2 404
10:34:46 11 1007 173 5 S 0 95 407
10:37:48 11 1007 169 4 S 0 94.9 404
10:40:47 11 1007 173 5 NO 0 95 407
10:43:48 11 1007 174 6 SO 0 95 404
10:46:46 11 1007 179 5 O 0 95 407
10:49:50 11 1007 170 3 W 0 95.1 404
10:52:47 11 1007 169 1 W 0 95.1 404
10:55:50 11 1006 163 2 SO 0 95.1 407
10:58:48 11 1007 182 5 S 0 95.2 408
11:01:47 11 1006 171 1 W 0 95.4 404
11:04:47 11 1006 155 2 S 0 95.5 407
11:07:47 11 1006 156 3 S 0 95.4 407
11:10:50 11 1007 162 5 SO 0 95.2 407
11:13:47 11 1006 162 4 0 95.2 404
11:16:45 11 1006 172 0 S 0 95.1 404
11:19:47 11 1007 179 5 SW 0 95.2 404
11:22:48 11 1006 167 6 W 0 94.8 407
11:25:47 11 1006 186 2 SO 0 94.8 406
11:28:45 11 1007 187 2 S 0 94.5 404
11:31:47 11 1006 182 1 S 0 94.5 407
11:34:48 11 1006 188 4 O 0 94.4 404
11:37:48 11 1007 183 2 NW 0 94.1 404
11:40:47 11 1006 184 2 W 0 93.5 407
11:43:48 11 1007 191 11 S 0 93 404
11:46:47 11 1006 194 2 W 0 93.2 406
11:49:49 11 1006 194 7 W 0 92.9 407
11:52:50 11 1006 195 6 SO 0 92.7 406
11:55:48 11 1006 194 2 S 0 92.4 404
11:58:49 11 1006 193 7 NO 0 91.8 407
12:01:46 11 1006 193 1 O 0 91.8 407
12:04:48 11 1006 194 10 O 0 92 406
12:07:47 11 1006 198 3 O 0 91.6 404
12:10:47 11 1006 195 3 N 0 91.7 404
12:13:49 11 1006 197 4 SW 0 91.3 407
12:16:47 11 1006 197 3 SW 0 91.1 407
12:19:49 11 1006 199 7 NO 0 91.6 407
12:22:47 11 1006 202 4 W 0 91.1 406
12:25:48 11 1006 202 5 SW 0 91 407
12:28:49 11 1006 202 3 SW 0 91 407
12:31:47 11 1006 201 4 W 0 90.4 404
12:34:48 11 1006 198 0 SW 0 90.1 407
12:37:47 11 1006 200 1 N 0 90 407
12:40:48 11 1006 202 5 SW 0 89.7 407
12:43:50 11 1006 202 7 SW 0 89.7 404
12:46:49 11 1006 199 3 W 0 89.3 407
12:49:49 11 1005 201 2 SO 0 89.4 405
12:52:50 11 1006 199 4 W 0 89.1 404
12:55:46 11 1006 198 7 S 0 88.8 404
12:58:48 11 1006 200 7 S 0 87.8 406
13:01:49 11 1006 202 5 SW 0 88 405
13:04:49 11 1005 202 3 NO 0 88 404
13:07:49 11 1006 199 1 SO 0 87.9 404
13:10:48 11 1005 203 2 W 0 87.9 404
13:13:51 11 1006 199 10 SO 0 86.5 407
13:16:47 11 1005 197 1 S 0 86.4 408
13:19:49 11 1005 196 8 O 0 86.7 407
13:22:49 11 1006 193 4 O 0 86.9 407
13:25:47 11 1006 196 2 O 0 86.8 407
13:28:47 11 1005 194 4 SW 0 87 406
13:31:46 11 1005 191 6 S 0 86.1 407
13:34:47 11 1005 193 1 W 0 85.5 407
13:37:49 11 1005 195 2 S 0 85.7 404
13:40:49 11 1005 192 4 W 0 86.1 407
13:43:51 11 1005 192 5 SW 0 86 407
13:46:47 11 1005 194 3 W 0 85.6 405
13:49:48 11 1005 191 4 SW 0 85.5 407
13:52:45 11 1005 191 3 S 0 85 404
13:55:48 11 1005 191 9 N 0 85 407
13:58:45 11 1005 190 2 O 0 85.1 407
14:01:49 11 1005 183 9 NW 0 85 407
14:04:47 11 1005 181 0 W 0 84.6 407
14:07:46 11 1004 181 17 W 0 84.9 404
14:10:49 11 1004 184 5 S 0 84.9 404
14:13:48 11 1004 181 5 W 0 84.9 407
14:16:48 11 1004 180 6 S 0 84.8 407
14:19:48 11 1003 182 7 S 0 84.5 404
14:22:48 11 1004 181 3 W 0 84.4 408
14:25:50 11 1004 179 7 W 0 83.8 404
14:28:48 11 1005 183 2 SO 0 83.5 404
14:31:49 11 1004 170 5 W 0 83.2 404
14:34:48 11 1004 162 3 W 0 83.9 405
14:37:48 11 1004 161 4 O 0 83.9 404
14:40:46 11 1004 154 0 S 0 83.5 407
14:43:48 11 1004 148 11 S 0 82.9 404
14:46:49 11 1003 151 12 S 0 82.8 407
14:49:47 11 1004 144 2 N 0 83.2 404
14:52:47 11 1004 145 10 NW 0 83.7 401
14:55:47 10 1004 147 3 W 0 83.3 404
14:58:47 10 1004 149 0 W 0 83.3 407
15:01:49 10 1004 158 2 SW 0 83.6 407
15:04:49 10 1003 159 2 S 0 83.9 405
15:07:46 10 1003 159 7 0 83.7 404
15:10:47 10 1004 166 2 S 0 83.1 404
15:13:49 10 1004 161 2 W 0 83.6 404
15:16:48 10 1003 156 1 S 0 83.6 407
15:19:47 10 1003 154 10 W 0 83.4 404
15:22:48 10 1003 138 5 SW 0 83.4 407
15:25:48 10 1003 130 8 W 0 83.3 404
15:28:48 10 1003 129 3 SW 0 83.1 407
15:31:49 10 1003 128 7 NW 0 83.9 407
15:34:47 10 1003 119 2 O 0 83.9 401
15:37:50 10 1002 115 6 SO 0 83.8 404
15:40:46 10 1003 111 8 SO 0 83.7 404
15:43:49 10 1003 115 2 W 0 83.7 407
15:46:47 10 1003 110 4 SO 0 84.3 407
15:49:50 10 1002 96 6 SW 0 84.6 407
15:52:47 10 1002 81 6 SW 0 84.8 407
15:55:47 10 1002 77 3 NW 0 85 407
15:58:47 10 1003 75 4 SW 0 85.1 404
16:01:51 10 1002 68 2 NO 0 85.1 404
16:04:47 10 1002 56 1 S 0 85.2 407
16:07:47 10 1002 50 1 W 0 85.4 404
16:10:48 10 1002 43 4 SW 0 85.2 407
16:13:46 10 1002 34 0 S 0 84.9 406
16:16:50 10 1002 28 11 SO 0 85.4 407
16:19:47 10 1002 24 2 N 0 85.5 407
16:22:47 10 1002 20 2 S 0 85.8 403
16:25:47 10 1002 14 1 NW 0 86.1 407
16:28:48 10 1002 10 2 SW 0 86.4 407
16:31:47 10 1003 7 0 SW 0 86.6 407
16:34:46 10 1002 5 1 SW 0 87 407
16:37:47 10 1002 3 2 SW 0 87.2 401
16:40:48 10 1002 0 3 W 0 87.6 404
16:43:48 10 1002 0 8 SO 0 87.6 407
16:46:47 10 1002 0 6 S 0 87.6 405
16:49:47 10 1002 0 0 O 0 87.8 408
16:52:45 10 1002 0 0 N 0 87.9 410
16:55:47 10 1002 0 3 O 0 88.1 407
16:58:48 10 1002 0 2 SO 0 88.1 405
17:01:47 10 1002 0 6 SW 0 88.2 404
17:04:46 10 1002 0 1 O 0 88.3 404
17:07:46 9 1002 0 0 SW 0 88.5 404
17:10:49 9 1002 0 2 SO 0 88.8 407
17:13:48 9 1002 0 2 W 0 89.1 407
17:16:49 9 1002 0 2 SO 0 89.1 407
17:19:49 9 1002 0 3 O 0 89.2 404
17:22:45 9 1002 0 3 NO 0 89.3 407
17:25:46 10 1002 0 4 SW 0 89.3 404
17:28:46 10 1002 0 5 S 0 89.3 404
17:31:45 10 1002 0 3 W 0 89.2 407
17:34:45 10 1002 0 2 O 0 89.3 407
17:37:48 9 1002 0 4 W 0 89.4 401
17:40:46 9 1002 0 12 W 0 89.3 404
17:43:46 9 1002 0 6 NO 0 89.1 407
17:46:46 9 1002 0 7 S 0 89.1 404
17:49:46 9 1002 0 4 W 0 89.1 404
17:52:47 9 1002 0 5 SW 0 89.2 404
17:55:47 9 1002 0 7 W 0 88.9 404
17:58:50 9 1002 0 8 SW 0 88.8 404
18:01:50 9 1002 0 3 SW 0 88.5 407
18:04:48 9 1002 0 4 W 0 88.3 404
18:07:48 9 1002 0 10 SO 0 88.2 404
18:10:48 9 1002 0 0 W 0 88.3 408
18:13:48 9 1002 0 12 SW 0 88.4 407
18:16:49 9 1002 0 3 SW 0 88.6 403
18:19:47 9 1002 0 0 O 0 88.5 404
18:22:47 9 1002 0 8 S 0 88.9 407
18:25:47 9 1002 0 1 SW 0 88.9 404
18:28:48 9 1002 0 7 W 0 88.7 407
18:31:47 9 1002 0 4 SW 0 88.6 404
18:34:46 9 1002 0 1 W 0 88.6 407
18:37:50 9 1002 0 5 SO 0 88.9 403
18:40:47 9 1001 0 1 SO 0 88.9 404
18:43:48 9 1002 0 3 SO 0 88.9 407
18:46:48 9 1001 0 13 SW 0 88.6 406
18:49:49 9 1002 0 8 W 0 88.4 404
18:52:46 9 1001 0 3 NW 0 88.6 408
18:55:47 9 1001 0 6 S 0 88.6 405
18:58:46 9 1001 0 2 S 0 88.6 407
19:01:47 9 1001 0 6 NW 0 88.7 407
19:04:49 9 1002 0 2 W 0 88.5 407
19:07:46 9 1001 0 1 S 0 88.6 407
19:10:47 9 1002 0 3 W 0 88.6 404
19:13:47 9 1001 0 2 NW 0 88.9 404
19:16:47 9 1001 0 1 NO 0 89.1 404
19:19:50 9 1001 0 7 W 0 89.2 404
19:22:48 9 1001 0 14 SO 0 89.2 404
19:25:48 9 1000 0 2 NO 0 89.1 404
19:28:46 9 1001 0 4 NO 0 89.1 407
19:31:49 9 1001 0 15 SO 0 89.2 404
19:34:46 9 1000 0 2 W 0 89.1 404
19:37:48 9 1000 0 1 SO 0 89.1 404
19:40:46 9 1000 0 3 SO 0 89.1 401
19:43:46 9 1000 0 2 N 0 89.2 404
19:46:47 9 1000 0 1 W 0 89.3 407
19:49:46 9 1000 0 5 N 0 89.4 404
19:52:47 9 1000 0 5 SW 0 89.3 407
19:55:46 9 1001 0 3 NW 0 89.3 407
19:58:44 9 999 0 4 W 0 89.4 407
20:01:48 9 1001 0 1 S 0 89.6 407
20:04:49 9 1000 0 11 S 0 89.7 404
20:07:48 9 1000 0 6 SW 0 89.8 407
20:11:00 9 1000 0 3 NW 0 89.9 406
20:13:48 9 1000 0 2 S 0 90 407
20:16:48 9 1000 0 3 NO 0 90 403
20:19:46 9 999 0 4 S 0 90.1 404
20:22:50 9 1000 0 6 SW 0 90.1 408
20:25:46 9 999 0 2 W 0 90.2 597
20:28:50 9 999 0 10 SW 0 90.4 609
20:31:47 9 1000 0 0 SW 0 90.5 618
20:34:45 9 999 0 4 O 0 90.6 615
20:37:47 9 999 0 1 SW 0 90.8 609
20:40:50 9 999 0 2 SW 0 91.1 607
20:43:46 9 999 0 0 W 0 91.2 607
20:46:50 9 999 0 7 SW 0 91.3 619
20:49:48 9 999 0 5 S 0 91.5 625
20:52:46 9 999 0 3 SW 0 91.6 631
20:55:47 9 999 0 4 SW 0 91.7 633
20:58:45 9 999 0 4 S 0 91.8 630
21:01:48 9 999 0 2 W 0 91.9 637
21:04:46 9 999 0 3 O 0 92 650
21:07:50 9 999 0 0 NO 0 92.1 653
21:10:47 9 1000 0 0 SO 0 92.3 661
21:13:50 9 999 0 2 NO 0 92.5 665
21:16:48 9 999 0 2 SW 0 92.6 664
21:19:48 9 999 0 3 SO 0 92.6 665
21:22:45 9 999 0 1 O 0 92.7 664
21:25:46 9 999 0 0 W 0 92.8 662
21:28:48 9 998 0 3 SW 0 93 664
21:31:47 9 999 0 3 SW 0 93.3 671
21:34:45 9 998 0 3 W 0 93.3 674
21:37:47 9 999 0 2 NW 0 93.3 677
21:40:46 9 997 0 5 S 0 93.3 678
21:43:44 9 999 0 3 S 0 93.3 674
21:46:48 9 998 0 11 O 0 93.3 683
21:49:47 9 999 0 4 S 0 93.2 691
21:52:46 9 998 0 4 W 0 93.1 695
21:55:45 9 999 0 2 S 0 93 697
21:58:45 9 999 0 0 S 0 92.9 690
22:01:48 9 998 0 2 N 0 92.9 700
22:04:49 9 998 0 6 NW 0 92.9 694
22:07:47 9 998 0 2 SO 0 93 705
22:10:46 9 998 0 2 SO 0 93.3 671
22:13:46 9 998 0 4 W 0 93.3 699
22:16:46 9 998 0 4 SW 0 93.4 701
22:19:44 9 998 0 3 S 0 93.4 702
22:22:47 9 998 0 9 SW 0 93.5 707
22:25:45 9 998 0 1 W 0 93.6 712
22:28:46 9 998 0 1 S 0 94 720
22:31:49 9 998 0 5 NW 0 94.3 728
22:34:50 9 998 0 3 SW 0 94.6 735
22:37:47 9 998 0 2 SW 0 94.7 732
22:40:47 9 998 0 9 SW 0 95 740
22:43:46 9 998 0 3 SO 0 95.1 741
22:46:47 9 998 0 3 NW 0 95.3 741
22:49:46 8 998 0 23 S 0 95.6 746
22:52:47 8 998 0 5 SO 0 95.8 738
22:55:47 8 998 0 9 S 0 95.9 742
22:58:45 8 998 0 3 W 0 96.1 741
23:01:47 8 998 0 9 S 0 96.1 747
23:04:47 8 998 0 9 SW 0 96.1 750
23:07:44 8 998 0 4 S 0 96.1 750
23:10:47 8 998 0 3 SW 0 96 748
23:13:46 8 997 0 8 O 0 96 741
23:16:47 8 998 0 5 SW 0 96 748
23:19:45 8 998 0 3 S 0 95.9 747
23:22:48 8 998 0 8 SW 0 95.8 758
23:25:45 8 998 0 4 S 0 95.4 757
23:28:46 8 998 0 1 SO 0 95.1 755
23:31:47 8 997 0 5 NW 0 94.8 757
23:34:46 8 998 0 9 S 0 94.5 756
23:37:43 8 997 0 2 S 0 94.2 751
23:40:46 8 998 0 2 NW 0 94.1 752
23:43:45 8 998 0 5 S 0 94.1 752
23:46:45 8 998 0 2 O 0 94 747
23:49:48 8 998 0 6 S 0 93.7 751
23:52:46 8 998 0 5 N 0 93.5 758
23:55:46 8 997 0 6 SW 0 93.4 755
23:58:45 9 997 0 7 S 0 93.4 759

Letzte Änderung : 22-Jul-2022
Copyright Jens Köhler, Wolfsburg, Obere Dorfstraße 10d